カタログに戻る

STARLINK-30851

運用中通信VLEO
NORAD 58215·PAYLOAD·🇺🇸 United States

打ち上げ Nov 3, 2023 から Cape Canaveral Space Force Station

Loading…

次のパス (今後24時間)

TLE

最新Source: CelesTrak SupGP

元期: Sep 15, 2026, 02:34 UTC

1 58215C 23170K   26258.10743056 -.00050457  00000+0 -18273-2 0  2586
2 58215  43.0011 204.2667 0001278 275.6196 353.5706 15.27608967    14

AllMySatでSTARLINK-30851をリアルタイム追跡

Download on the App Store